カタログに戻る

SL-12 DEB

LostHEO
NORAD 27963·DEBRIS·🇷🇺 Russia

打ち上げ Sep 16, 1987 から Baikonur Cosmodrome

Loading…

次のパス (今後24時間)

TLE

古いSource: Space-Track

元期: Dec 21, 2004, 22:07 UTC

1 27963U 87079BC  04356.92171407 +.00045624 +00000-0 +16095+0 0  9998
2 27963 065.5438 294.5246 5425081 053.6933 351.9882 04.63645621025433

AllMySatでSL-12 DEBをリアルタイム追跡

Download on the App Store